Time,TemperatureF,DewpointF,PressureIn,WindDirection,WindDirectionDegrees,WindSpeedMPH,WindSpeedGustMPH,Humidity,HourlyPrecipIn,Conditions,Clouds,dailyrainin,SoftwareType,DateUTC
2013-09-16 00:00:00,55.2,50.8,30.05,East,94,0.0,0.0,85,0.00,,,0.00,WeatherCatV1.15B25,2013-09-16 04:00:00,
2013-09-16 00:01:00,55.2,51.1,30.05,East,94,0.0,0.0,86,0.00,,,0.00,WeatherCatV1.15B25,2013-09-16 04:01:00,
2013-09-16 00:03:00,55.1,51.0,30.05,East,94,0.0,0.0,86,0.00,,,0.00,WeatherCatV1.15B25,2013-09-16 04:03:00,
2013-09-16 00:04:00,55.1,51.0,30.05,East,94,0.0,0.0,86,0.00,,,0.00,WeatherCatV1.15B25,2013-09-16 04:04:00,
2013-09-16 00:06:00,55.0,50.9,30.05,East,94,0.0,0.0,86,0.00,,,0.00,WeatherCatV1.15B25,2013-09-16 04:06:00,
2013-09-16 00:11:00,54.9,50.8,30.05,East,94,0.0,0.0,86,0.00,,,0.00,WeatherCatV1.15B25,2013-09-16 04:11:00,
2013-09-16 00:16:00,54.7,50.9,30.05,East,94,0.0,0.0,87,0.00,,,0.00,WeatherCatV1.15B25,2013-09-16 04:16:00,
2013-09-16 00:21:00,54.8,51.0,30.05,East,94,0.0,0.0,87,0.00,,,0.00,WeatherCatV1.15B25,2013-09-16 04:21:00,
2013-09-16 00:26:00,54.9,51.1,30.05,SSE,164,0.0,0.0,87,0.00,,,0.00,WeatherCatV1.15B25,2013-09-16 04:26:00,
2013-09-16 00:31:00,55.0,50.9,30.05,SSE,163,0.0,0.0,86,0.00,,,0.00,WeatherCatV1.15B25,2013-09-16 04:31:00,
2013-09-16 00:36:00,55.2,51.1,30.05,SSE,164,0.0,0.0,86,0.00,,,0.00,WeatherCatV1.15B25,2013-09-16 04:36:00,
2013-09-16 00:41:00,55.4,51.3,30.05,SSE,163,0.0,0.0,86,0.00,,,0.00,WeatherCatV1.15B25,2013-09-16 04:41:00,
2013-09-16 00:46:00,55.6,51.2,30.06,SSE,163,0.0,0.0,85,0.00,,,0.00,WeatherCatV1.15B25,2013-09-16 04:46:00,
2013-09-16 00:51:00,55.6,51.2,30.05,SSE,164,0.0,0.0,85,0.00,,,0.00,WeatherCatV1.15B25,2013-09-16 04:51:00,
2013-09-16 00:56:00,55.6,51.2,30.05,SSE,164,0.0,0.0,85,0.00,,,0.00,WeatherCatV1.15B25,2013-09-16 04:56:00,
2013-09-16 01:01:00,55.4,51.0,30.05,SSE,164,0.0,0.0,85,0.00,,,0.00,WeatherCatV1.15B25,2013-09-16 05:01:00,
2013-09-16 01:06:00,55.3,51.2,30.05,SSE,164,0.0,0.0,86,0.00,,,0.00,WeatherCatV1.15B25,2013-09-16 05:06:00,
2013-09-16 01:11:00,55.2,51.1,30.05,SSE,164,0.0,0.0,86,0.00,,,0.00,WeatherCatV1.15B25,2013-09-16 05:11:00,
2013-09-16 01:16:00,55.0,51.2,30.05,SSE,163,0.0,0.0,87,0.00,,,0.00,WeatherCatV1.15B25,2013-09-16 05:16:00,
2013-09-16 01:21:00,54.9,51.1,30.05,SSE,164,0.0,0.0,87,0.00,,,0.00,WeatherCatV1.15B25,2013-09-16 05:21:00,
2013-09-16 01:26:00,54.8,51.3,30.04,SSE,163,0.0,0.0,88,0.00,,,0.00,WeatherCatV1.15B25,2013-09-16 05:26:00,
2013-09-16 01:31:00,54.7,51.2,30.04,SSE,164,0.0,0.0,88,0.00,,,0.00,WeatherCatV1.15B25,2013-09-16 05:31:00,
2013-09-16 01:36:00,54.6,51.1,30.04,SSE,163,0.0,0.0,88,0.00,,,0.00,WeatherCatV1.15B25,2013-09-16 05:36:00,
2013-09-16 01:41:00,54.5,51.0,30.04,SSE,163,0.0,0.0,88,0.00,,,0.00,WeatherCatV1.15B25,2013-09-16 05:41:00,
2013-09-16 01:46:00,54.4,51.2,30.04,SSE,164,0.0,0.0,89,0.00,,,0.00,WeatherCatV1.15B25,2013-09-16 05:46:00,
2013-09-16 01:51:00,54.3,51.1,30.03,SSE,163,0.0,0.0,89,0.00,,,0.00,WeatherCatV1.15B25,2013-09-16 05:51:00,
2013-09-16 01:56:00,54.3,51.1,30.03,SSE,163,0.0,0.0,89,0.00,,,0.00,WeatherCatV1.15B25,2013-09-16 05:56:00,
2013-09-16 02:01:00,54.2,51.0,30.03,SSE,163,0.0,0.0,89,0.00,,,0.00,WeatherCatV1.15B25,2013-09-16 06:01:00,
2013-09-16 02:06:00,54.2,51.3,30.03,SSE,164,0.0,0.0,90,0.00,,,0.00,WeatherCatV1.15B25,2013-09-16 06:06:00,
2013-09-16 02:11:00,54.2,51.3,30.03,SSE,164,0.0,0.0,90,0.00,,,0.00,WeatherCatV1.15B25,2013-09-16 06:11:00,
2013-09-16 02:16:00,54.1,51.2,30.03,SSE,163,0.0,0.0,90,0.00,,,0.00,WeatherCatV1.15B25,2013-09-16 06:16:00,
2013-09-16 02:21:00,54.2,51.3,30.03,SSE,164,0.0,0.0,90,0.00,,,0.00,WeatherCatV1.15B25,2013-09-16 06:21:00,
2013-09-16 02:26:00,54.2,51.3,30.03,SSE,163,0.0,0.0,90,0.00,,,0.00,WeatherCatV1.15B25,2013-09-16 06:26:00,
2013-09-16 02:31:00,54.3,51.4,30.02,SSE,164,0.0,0.0,90,0.00,,,0.00,WeatherCatV1.15B25,2013-09-16 06:31:00,
2013-09-16 02:36:00,54.3,51.4,30.02,SSE,164,0.0,0.0,90,0.00,,,0.00,WeatherCatV1.15B25,2013-09-16 06:36:00,
2013-09-16 02:41:00,54.4,51.5,30.03,SSE,163,0.0,0.0,90,0.00,,,0.00,WeatherCatV1.15B25,2013-09-16 06:41:00,
2013-09-16 02:46:00,54.5,51.6,30.03,SSE,163,0.0,0.0,90,0.00,,,0.00,WeatherCatV1.15B25,2013-09-16 06:46:00,
2013-09-16 02:51:00,54.5,51.3,30.03,SSE,163,0.0,0.0,89,0.00,,,0.00,WeatherCatV1.15B25,2013-09-16 06:51:00,
2013-09-16 02:56:00,54.5,51.3,30.02,SSE,163,0.0,0.0,89,0.00,,,0.00,WeatherCatV1.15B25,2013-09-16 06:56:00,
2013-09-16 03:01:00,54.5,51.3,30.03,SSE,163,0.0,0.0,89,0.00,,,0.00,WeatherCatV1.15B25,2013-09-16 07:01:00,
2013-09-16 03:06:00,54.5,51.3,30.03,SSE,163,0.0,0.0,89,0.00,,,0.00,WeatherCatV1.15B25,2013-09-16 07:06:00,
2013-09-16 03:11:00,54.5,51.3,30.03,SSE,164,0.0,0.0,89,0.00,,,0.00,WeatherCatV1.15B25,2013-09-16 07:11:00,
2013-09-16 03:16:00,54.5,51.3,30.03,SSE,163,0.0,0.0,89,0.00,,,0.00,WeatherCatV1.15B25,2013-09-16 07:16:00,
2013-09-16 03:21:00,54.5,51.6,30.03,SSE,164,0.0,0.0,90,0.00,,,0.00,WeatherCatV1.15B25,2013-09-16 07:21:00,
2013-09-16 03:26:00,54.5,51.3,30.03,SSE,163,0.0,0.0,89,0.00,,,0.00,WeatherCatV1.15B25,2013-09-16 07:26:00,
2013-09-16 03:31:00,54.5,51.3,30.03,SSE,163,0.0,0.0,89,0.00,,,0.00,WeatherCatV1.15B25,2013-09-16 07:31:00,
2013-09-16 03:36:00,54.6,51.4,30.02,SSE,163,0.0,0.0,89,0.00,,,0.00,WeatherCatV1.15B25,2013-09-16 07:36:00,
2013-09-16 03:41:00,54.6,51.4,30.02,SSE,163,0.0,0.0,89,0.00,,,0.00,WeatherCatV1.15B25,2013-09-16 07:41:00,
2013-09-16 03:46:00,54.7,51.5,30.02,SSE,163,0.0,0.0,89,0.00,,,0.00,WeatherCatV1.15B25,2013-09-16 07:46:00,
2013-09-16 03:51:00,54.7,51.5,30.02,SSE,164,0.0,0.0,89,0.00,,,0.00,WeatherCatV1.15B25,2013-09-16 07:51:00,
2013-09-16 03:56:00,54.8,51.6,30.02,SSE,163,0.0,0.0,89,0.00,,,0.00,WeatherCatV1.15B25,2013-09-16 07:56:00,
2013-09-16 04:01:00,54.9,51.7,30.03,SSE,164,0.0,0.0,89,0.00,,,0.00,WeatherCatV1.15B25,2013-09-16 08:01:00,
2013-09-16 04:06:00,55.0,51.8,30.03,SSE,164,0.0,0.0,89,0.00,,,0.00,WeatherCatV1.15B25,2013-09-16 08:06:00,
2013-09-16 04:11:00,55.0,51.8,30.02,SSE,163,0.0,0.0,89,0.00,,,0.00,WeatherCatV1.15B25,2013-09-16 08:11:00,
2013-09-16 04:16:00,55.1,51.6,30.02,SSE,163,0.0,0.0,88,0.00,,,0.00,WeatherCatV1.15B25,2013-09-16 08:16:00,
2013-09-16 04:21:00,55.2,51.7,30.02,SSE,163,0.0,0.0,88,0.00,,,0.00,WeatherCatV1.15B25,2013-09-16 08:21:00,
2013-09-16 04:26:00,55.2,51.7,30.02,SSE,164,0.0,0.0,88,0.00,,,0.00,WeatherCatV1.15B25,2013-09-16 08:26:00,
2013-09-16 04:31:00,55.1,51.6,30.02,SSE,164,0.0,0.0,88,0.00,,,0.00,WeatherCatV1.15B25,2013-09-16 08:31:00,
2013-09-16 04:36:00,55.1,51.6,30.02,SSE,163,0.0,0.0,88,0.00,,,0.00,WeatherCatV1.15B25,2013-09-16 08:36:00,
2013-09-16 04:41:00,55.2,51.7,30.02,SSE,163,0.0,0.0,88,0.00,,,0.00,WeatherCatV1.15B25,2013-09-16 08:41:00,
2013-09-16 04:46:00,55.1,51.9,30.00,ESE,120,0.0,0.0,89,0.00,,,0.00,WeatherCatV1.15B25,2013-09-16 08:46:00,
2013-09-16 04:51:00,55.2,51.7,30.02,ESE,120,0.0,0.0,88,0.00,,,0.00,WeatherCatV1.15B25,2013-09-16 08:51:00,
2013-09-16 04:56:00,55.2,52.0,30.02,ESE,120,0.0,0.0,89,0.00,,,0.00,WeatherCatV1.15B25,2013-09-16 08:56:00,
2013-09-16 05:01:00,55.2,51.7,30.02,ESE,120,0.0,0.0,88,0.00,,,0.00,WeatherCatV1.15B25,2013-09-16 09:01:00,
2013-09-16 05:06:00,55.2,51.7,30.02,ESE,120,0.0,0.0,88,0.00,,,0.00,WeatherCatV1.15B25,2013-09-16 09:06:00,
2013-09-16 05:11:00,55.3,51.5,30.02,ESE,120,0.0,0.0,87,0.00,,,0.00,WeatherCatV1.15B25,2013-09-16 09:11:00,
2013-09-16 05:16:00,55.3,51.5,30.02,ESE,119,0.0,0.0,87,0.00,,,0.00,WeatherCatV1.15B25,2013-09-16 09:16:00,
2013-09-16 05:21:00,55.1,51.3,30.02,ESE,120,0.0,0.0,87,0.00,,,0.00,WeatherCatV1.15B25,2013-09-16 09:21:00,
2013-09-16 05:26:00,54.9,51.1,30.03,ESE,120,0.0,0.0,87,0.00,,,0.00,WeatherCatV1.15B25,2013-09-16 09:26:00,
2013-09-16 05:31:00,54.8,51.3,30.03,ESE,120,0.0,0.0,88,0.00,,,0.00,WeatherCatV1.15B25,2013-09-16 09:31:00,
2013-09-16 05:36:00,54.6,51.1,30.03,ESE,120,0.0,0.0,88,0.00,,,0.00,WeatherCatV1.15B25,2013-09-16 09:36:00,
2013-09-16 05:41:00,54.4,50.9,30.03,ESE,120,0.0,0.0,88,0.00,,,0.00,WeatherCatV1.15B25,2013-09-16 09:41:00,
2013-09-16 05:46:00,54.3,51.1,30.03,ESE,120,0.0,0.0,89,0.00,,,0.00,WeatherCatV1.15B25,2013-09-16 09:46:00,
2013-09-16 05:51:00,54.2,51.0,30.03,ESE,120,0.0,0.0,89,0.00,,,0.00,WeatherCatV1.15B25,2013-09-16 09:51:00,
2013-09-16 05:56:00,54.1,50.9,30.03,ESE,120,0.0,0.0,89,0.00,,,0.00,WeatherCatV1.15B25,2013-09-16 09:56:00,
2013-09-16 06:01:00,54.0,51.1,30.04,ESE,120,0.0,0.0,90,0.00,,,0.00,WeatherCatV1.15B25,2013-09-16 10:01:00,
2013-09-16 06:06:00,54.0,51.1,30.04,ESE,120,0.0,0.0,90,0.00,,,0.00,WeatherCatV1.15B25,2013-09-16 10:06:00,
2013-09-16 06:11:00,54.0,51.1,30.05,ESE,120,0.0,0.0,90,0.00,,,0.00,WeatherCatV1.15B25,2013-09-16 10:11:00,
2013-09-16 06:16:00,54.0,51.1,30.05,ESE,120,0.0,0.0,90,0.00,,,0.00,WeatherCatV1.15B25,2013-09-16 10:16:00,
2013-09-16 06:21:00,54.1,51.2,30.04,ESE,120,0.0,0.0,90,0.00,,,0.00,WeatherCatV1.15B25,2013-09-16 10:21:00,
2013-09-16 06:26:00,54.1,51.2,30.02,ESE,120,0.0,0.0,90,0.00,,,0.00,WeatherCatV1.15B25,2013-09-16 10:26:00,
2013-09-16 06:31:00,54.2,51.3,30.03,ESE,120,0.0,0.0,90,0.00,,,0.00,WeatherCatV1.15B25,2013-09-16 10:31:00,
2013-09-16 06:36:00,54.2,51.3,30.04,ESE,120,0.0,0.0,90,0.00,,,0.00,WeatherCatV1.15B25,2013-09-16 10:36:00,
2013-09-16 06:41:00,54.5,51.6,30.05,ESE,120,0.0,0.0,90,0.00,,,0.00,WeatherCatV1.15B25,2013-09-16 10:41:00,
2013-09-16 06:46:00,54.8,51.9,30.04,ESE,120,0.0,0.0,90,0.00,,,0.00,WeatherCatV1.15B25,2013-09-16 10:46:00,
2013-09-16 06:51:00,54.9,51.7,30.04,ESE,120,0.0,0.0,89,0.00,,,0.00,WeatherCatV1.15B25,2013-09-16 10:51:00,
2013-09-16 06:56:00,54.9,51.7,30.04,ESE,120,0.0,0.0,89,0.00,,,0.00,WeatherCatV1.15B25,2013-09-16 10:56:00,
2013-09-16 07:01:00,55.0,51.8,30.04,ESE,120,0.0,0.0,89,0.00,,,0.00,WeatherCatV1.15B25,2013-09-16 11:01:00,
2013-09-16 07:06:00,55.0,51.8,30.04,ESE,120,0.0,0.0,89,0.00,,,0.00,WeatherCatV1.15B25,2013-09-16 11:06:00,
2013-09-16 07:11:00,55.0,51.8,30.04,ESE,119,0.0,0.0,89,0.00,,,0.00,WeatherCatV1.15B25,2013-09-16 11:11:00,
2013-09-16 07:16:00,55.1,51.9,30.05,ESE,120,0.0,0.0,89,0.00,,,0.00,WeatherCatV1.15B25,2013-09-16 11:16:00,
2013-09-16 07:21:00,55.3,52.1,30.05,ESE,120,0.0,0.0,89,0.00,,,0.00,WeatherCatV1.15B25,2013-09-16 11:21:00,
2013-09-16 07:26:00,55.5,52.0,30.05,ESE,120,0.0,0.0,88,0.00,,,0.00,WeatherCatV1.15B25,2013-09-16 11:26:00,
2013-09-16 07:31:00,55.7,52.2,30.06,NE,37,0.0,0.0,88,0.00,,,0.00,WeatherCatV1.15B25,2013-09-16 11:31:00,
2013-09-16 07:36:00,55.9,52.1,30.06,NE,37,0.0,0.0,87,0.00,,,0.00,WeatherCatV1.15B25,2013-09-16 11:36:00,
2013-09-16 07:41:00,56.1,52.3,30.05,NE,37,0.0,0.0,87,0.00,,,0.00,WeatherCatV1.15B25,2013-09-16 11:41:00,
2013-09-16 07:46:00,56.3,52.5,30.06,NE,37,0.0,0.0,87,0.00,,,0.00,WeatherCatV1.15B25,2013-09-16 11:46:00,
2013-09-16 07:51:00,56.5,52.4,30.06,WNW,297,0.0,1.0,86,0.00,,,0.00,WeatherCatV1.15B25,2013-09-16 11:51:00,
2013-09-16 07:56:00,57.0,52.2,30.06,WNW,286,1.0,1.0,84,0.00,,,0.00,WeatherCatV1.15B25,2013-09-16 11:56:00,
2013-09-16 08:01:00,57.3,52.2,30.07,West,274,0.0,0.0,83,0.00,,,0.00,WeatherCatV1.15B25,2013-09-16 12:01:00,
2013-09-16 08:06:00,57.5,52.4,30.06,WNW,288,0.0,0.0,83,0.00,,,0.00,WeatherCatV1.15B25,2013-09-16 12:06:00,
2013-09-16 08:11:00,57.6,52.5,30.05,WNW,288,0.0,0.0,83,0.00,,,0.00,WeatherCatV1.15B25,2013-09-16 12:11:00,
2013-09-16 08:16:00,57.6,52.8,30.06,WNW,288,0.0,1.0,84,0.00,,,0.00,WeatherCatV1.15B25,2013-09-16 12:16:00,
2013-09-16 08:21:00,57.7,52.6,30.06,WNW,285,0.0,0.0,83,0.00,,,0.00,WeatherCatV1.15B25,2013-09-16 12:21:00,
2013-09-16 08:26:00,57.8,52.7,30.06,WNW,285,0.0,0.0,83,0.00,,,0.00,WeatherCatV1.15B25,2013-09-16 12:26:00,
2013-09-16 08:31:00,57.9,52.8,30.06,WNW,285,0.0,1.0,83,0.00,,,0.00,WeatherCatV1.15B25,2013-09-16 12:31:00,
2013-09-16 08:36:00,58.1,52.3,30.06,WNW,285,0.0,1.0,81,0.00,,,0.00,WeatherCatV1.15B25,2013-09-16 12:36:00,
2013-09-16 08:41:00,58.3,52.8,30.07,WNW,288,0.0,1.0,82,0.00,,,0.00,WeatherCatV1.15B25,2013-09-16 12:41:00,
2013-09-16 08:46:00,58.4,52.6,30.07,West,273,0.0,2.0,81,0.00,,,0.00,WeatherCatV1.15B25,2013-09-16 12:46:00,
2013-09-16 08:51:00,58.6,52.8,30.07,West,266,0.0,0.0,81,0.00,,,0.00,WeatherCatV1.15B25,2013-09-16 12:51:00,
2013-09-16 08:56:00,58.6,52.8,30.07,NW,304,0.0,1.0,81,0.00,,,0.00,WeatherCatV1.15B25,2013-09-16 12:56:00,
2013-09-16 09:01:00,58.5,53.0,30.06,West,270,1.0,1.0,82,0.00,,,0.00,WeatherCatV1.15B25,2013-09-16 13:01:00,
2013-09-16 09:06:00,58.4,53.3,30.07,WNW,296,0.0,2.0,83,0.00,,,0.00,WeatherCatV1.15B25,2013-09-16 13:06:00,
2013-09-16 09:11:00,58.2,53.1,30.07,North,354,0.0,3.0,83,0.00,,,0.00,WeatherCatV1.15B25,2013-09-16 13:11:00,
2013-09-16 09:16:00,58.0,53.2,30.07,WNW,282,0.0,0.0,84,0.00,,,0.00,WeatherCatV1.15B25,2013-09-16 13:16:00,
2013-09-16 09:21:00,58.0,53.2,30.07,WNW,282,0.0,1.0,84,0.00,,,0.00,WeatherCatV1.15B25,2013-09-16 13:21:00,
2013-09-16 09:26:00,57.8,53.3,30.07,WNW,296,0.0,2.0,85,0.00,,,0.00,WeatherCatV1.15B25,2013-09-16 13:26:00,
2013-09-16 09:31:00,57.8,53.3,30.07,WNW,301,1.0,1.0,85,0.00,,,0.00,WeatherCatV1.15B25,2013-09-16 13:31:00,
2013-09-16 09:36:00,57.7,53.5,30.07,West,279,0.0,1.0,86,0.00,,,0.00,WeatherCatV1.15B25,2013-09-16 13:36:00,
2013-09-16 09:41:00,57.7,53.2,30.06,WNW,288,1.0,3.0,85,0.00,,,0.00,WeatherCatV1.15B25,2013-09-16 13:41:00,
2013-09-16 09:46:00,57.7,53.2,30.06,WNW,283,0.0,2.0,85,0.00,,,0.00,WeatherCatV1.15B25,2013-09-16 13:46:00,
2013-09-16 09:51:00,57.7,53.5,30.06,WNW,283,0.0,0.0,86,0.00,,,0.00,WeatherCatV1.15B25,2013-09-16 13:51:00,
2013-09-16 09:56:00,57.8,53.6,30.05,WNW,283,0.0,0.0,86,0.00,,,0.00,WeatherCatV1.15B25,2013-09-16 13:56:00,
2013-09-16 10:01:00,57.8,53.6,30.05,WNW,283,0.0,0.0,86,0.00,,,0.00,WeatherCatV1.15B25,2013-09-16 14:01:00,
2013-09-16 10:06:00,57.9,53.7,30.05,WNW,283,0.0,0.0,86,0.00,,,0.00,WeatherCatV1.15B25,2013-09-16 14:06:00,
2013-09-16 10:11:00,57.8,54.0,30.05,WNW,283,0.0,0.0,87,0.00,,,0.00,WeatherCatV1.15B25,2013-09-16 14:11:00,
2013-09-16 10:16:00,57.7,53.9,30.05,WNW,283,0.0,1.0,87,0.00,,,0.00,WeatherCatV1.15B25,2013-09-16 14:16:00,
2013-09-16 10:21:00,57.5,53.3,30.05,WNW,284,0.0,0.0,86,0.00,,,0.00,WeatherCatV1.15B25,2013-09-16 14:21:00,
2013-09-16 10:26:00,57.4,53.2,30.05,WNW,284,0.0,0.0,86,0.00,,,0.00,WeatherCatV1.15B25,2013-09-16 14:26:00,
2013-09-16 10:31:00,57.3,53.1,30.06,WNW,293,0.0,2.0,86,0.00,,,0.00,WeatherCatV1.15B25,2013-09-16 14:31:00,
2013-09-16 10:36:00,57.4,53.6,30.06,WNW,293,0.0,0.0,87,0.00,,,0.00,WeatherCatV1.15B25,2013-09-16 14:36:00,
2013-09-16 10:41:00,57.4,53.2,30.06,NW,304,0.0,1.0,86,0.00,,,0.00,WeatherCatV1.15B25,2013-09-16 14:41:00,
2013-09-16 10:46:00,57.4,53.2,30.06,WNW,283,0.0,1.0,86,0.00,,,0.00,WeatherCatV1.15B25,2013-09-16 14:46:00,
2013-09-16 10:51:00,57.4,53.2,30.06,WNW,285,0.0,1.0,86,0.00,,,0.00,WeatherCatV1.15B25,2013-09-16 14:51:00,
2013-09-16 10:56:00,57.4,53.2,30.06,WNW,285,0.0,0.0,86,0.00,,,0.00,WeatherCatV1.15B25,2013-09-16 14:56:00,
2013-09-16 11:01:00,57.4,53.2,30.06,NNW,335,0.0,0.0,86,0.00,,,0.00,WeatherCatV1.15B25,2013-09-16 15:01:00,
2013-09-16 11:06:00,57.4,52.9,30.06,NNW,335,0.0,1.0,85,0.00,,,0.00,WeatherCatV1.15B25,2013-09-16 15:06:00,
2013-09-16 11:11:00,57.5,53.3,30.06,NNW,335,0.0,0.0,86,0.00,,,0.00,WeatherCatV1.15B25,2013-09-16 15:11:00,
2013-09-16 11:16:00,57.5,53.3,30.06,NNW,337,0.0,1.0,86,0.00,,,0.00,WeatherCatV1.15B25,2013-09-16 15:16:00,
2013-09-16 11:21:00,57.6,53.4,30.06,NNW,336,0.0,1.0,86,0.00,,,0.00,WeatherCatV1.15B25,2013-09-16 15:21:00,
2013-09-16 11:26:00,57.7,53.2,30.06,NW,307,0.0,0.0,85,0.00,,,0.00,WeatherCatV1.15B25,2013-09-16 15:26:00,
2013-09-16 11:31:00,57.9,53.7,30.05,WNW,283,0.0,0.0,86,0.00,,,0.00,WeatherCatV1.15B25,2013-09-16 15:31:00,
2013-09-16 11:36:00,58.0,53.8,30.06,WNW,284,0.0,0.0,86,0.00,,,0.00,WeatherCatV1.15B25,2013-09-16 15:36:00,
2013-09-16 11:41:00,58.3,54.1,30.06,WNW,284,0.0,1.0,86,0.00,,,0.00,WeatherCatV1.15B25,2013-09-16 15:41:00,
2013-09-16 11:46:00,58.4,53.9,30.06,West,274,0.0,1.0,85,0.00,,,0.00,WeatherCatV1.15B25,2013-09-16 15:46:00,
2013-09-16 11:51:00,58.6,54.1,30.06,West,274,0.0,0.0,85,0.00,,,0.00,WeatherCatV1.15B25,2013-09-16 15:51:00,
2013-09-16 11:56:00,58.8,54.3,30.06,West,274,0.0,0.0,85,0.00,,,0.00,WeatherCatV1.15B25,2013-09-16 15:56:00,
2013-09-16 12:01:00,59.0,54.5,30.06,WSW,256,0.0,1.0,85,0.00,,,0.00,WeatherCatV1.15B25,2013-09-16 16:01:00,
2013-09-16 12:06:00,59.2,54.0,30.06,ESE,103,0.0,2.0,83,0.00,,,0.00,WeatherCatV1.15B25,2013-09-16 16:06:00,
2013-09-16 12:11:00,59.4,54.2,30.06,ESE,113,0.0,2.0,83,0.00,,,0.00,WeatherCatV1.15B25,2013-09-16 16:11:00,
2013-09-16 12:16:00,59.7,55.2,30.05,ESE,104,1.0,1.0,85,0.00,,,0.00,WeatherCatV1.15B25,2013-09-16 16:16:00,
2013-09-16 12:21:00,60.0,54.5,30.05,SSW,209,0.0,1.0,82,0.00,,,0.00,WeatherCatV1.15B25,2013-09-16 16:21:00,
2013-09-16 12:26:00,60.4,55.2,30.05,NW,323,0.0,1.0,83,0.00,,,0.00,WeatherCatV1.15B25,2013-09-16 16:26:00,
2013-09-16 12:31:00,61.3,54.7,30.05,NW,306,1.0,1.0,79,0.00,,,0.00,WeatherCatV1.15B25,2013-09-16 16:31:00,
2013-09-16 12:36:00,62.1,54.8,30.05,NW,307,1.0,2.0,77,0.00,,,0.00,WeatherCatV1.15B25,2013-09-16 16:36:00,
2013-09-16 12:41:00,62.7,55.0,30.05,NW,318,0.0,0.0,76,0.00,,,0.00,WeatherCatV1.15B25,2013-09-16 16:41:00,
2013-09-16 12:46:00,63.3,55.2,30.04,West,269,2.0,2.0,75,0.00,,,0.00,WeatherCatV1.15B25,2013-09-16 16:46:00,
2013-09-16 12:51:00,64.2,55.7,30.04,West,281,4.0,5.0,74,0.00,,,0.00,WeatherCatV1.15B25,2013-09-16 16:51:00,
2013-09-16 12:56:00,64.4,54.4,30.04,NW,304,1.0,6.0,70,0.00,,,0.00,WeatherCatV1.15B25,2013-09-16 16:56:00,
2013-09-16 13:01:00,64.7,55.8,30.04,ENE,60,0.0,1.0,73,0.00,,,0.00,WeatherCatV1.15B25,2013-09-16 17:01:00,
2013-09-16 13:06:00,65.3,55.3,30.04,North,351,0.0,4.0,70,0.00,,,0.00,WeatherCatV1.15B25,2013-09-16 17:06:00,
2013-09-16 13:11:00,65.5,55.4,30.03,WNW,292,0.0,4.0,70,0.00,,,0.00,WeatherCatV1.15B25,2013-09-16 17:11:00,
2013-09-16 13:16:00,65.8,55.7,30.03,West,280,0.0,3.0,70,0.00,,,0.00,WeatherCatV1.15B25,2013-09-16 17:16:00,
2013-09-16 13:21:00,66.0,55.1,30.03,WNW,291,1.0,3.0,68,0.00,,,0.00,WeatherCatV1.15B25,2013-09-16 17:21:00,
2013-09-16 13:26:00,65.9,55.4,30.03,NW,321,1.0,3.0,69,0.00,,,0.00,WeatherCatV1.15B25,2013-09-16 17:26:00,
2013-09-16 13:31:00,66.0,53.9,30.03,NNW,332,1.0,4.0,65,0.00,,,0.00,WeatherCatV1.15B25,2013-09-16 17:31:00,
2013-09-16 13:36:00,65.8,54.5,30.03,NNE,19,0.0,3.0,67,0.00,,,0.00,WeatherCatV1.15B25,2013-09-16 17:36:00,
2013-09-16 13:41:00,65.8,53.7,30.03,NNW,334,1.0,4.0,65,0.00,,,0.00,WeatherCatV1.15B25,2013-09-16 17:41:00,
2013-09-16 13:46:00,65.8,52.8,30.03,NNW,348,5.0,5.0,63,0.00,,,0.00,WeatherCatV1.15B25,2013-09-16 17:46:00,
2013-09-16 13:51:00,66.3,53.3,30.03,North,1,1.0,3.0,63,0.00,,,0.00,WeatherCatV1.15B25,2013-09-16 17:51:00,
2013-09-16 13:56:00,66.9,53.4,30.03,NNW,345,1.0,1.0,62,0.00,,,0.00,WeatherCatV1.15B25,2013-09-16 17:56:00,
2013-09-16 14:02:00,67.2,53.7,30.03,NW,326,3.0,5.0,62,0.00,,,0.00,WeatherCatV1.15B25,2013-09-16 18:02:00,
2013-09-16 14:07:00,67.1,53.2,30.03,NNW,329,5.0,5.0,61,0.00,,,0.00,WeatherCatV1.15B25,2013-09-16 18:07:00,
2013-09-16 14:12:00,66.6,52.3,30.03,NE,39,1.0,7.0,60,0.00,,,0.00,WeatherCatV1.15B25,2013-09-16 18:12:00,
2013-09-16 14:17:00,66.2,52.8,30.03,North,1,2.0,6.0,62,0.00,,,0.00,WeatherCatV1.15B25,2013-09-16 18:17:00,
2013-09-16 14:22:00,66.0,53.0,30.03,West,277,1.0,4.0,63,0.00,,,0.00,WeatherCatV1.15B25,2013-09-16 18:22:00,
2013-09-16 14:27:00,65.8,52.8,30.04,NNW,337,2.0,5.0,63,0.00,,,0.00,WeatherCatV1.15B25,2013-09-16 18:27:00,
2013-09-16 14:32:00,65.9,52.9,30.04,North,4,2.0,3.0,63,0.00,,,0.00,WeatherCatV1.15B25,2013-09-16 18:32:00,
2013-09-16 14:37:00,65.9,52.1,30.04,NNE,17,0.0,5.0,61,0.00,,,0.00,WeatherCatV1.15B25,2013-09-16 18:37:00,
2013-09-16 14:42:00,66.0,52.2,30.04,NNW,339,1.0,3.0,61,0.00,,,0.00,WeatherCatV1.15B25,2013-09-16 18:42:00,
2013-09-16 14:47:00,65.9,52.5,30.04,North,354,3.0,4.0,62,0.00,,,0.00,WeatherCatV1.15B25,2013-09-16 18:47:00,
2013-09-16 14:52:00,65.6,52.7,30.04,NNW,327,0.0,2.0,63,0.00,,,0.00,WeatherCatV1.15B25,2013-09-16 18:52:00,
2013-09-16 14:57:00,65.3,51.9,30.04,WNW,291,1.0,4.0,62,0.00,,,0.00,WeatherCatV1.15B25,2013-09-16 18:57:00,
2013-09-16 15:02:00,65.1,52.6,30.04,NE,37,0.0,3.0,64,0.00,,,0.00,WeatherCatV1.15B25,2013-09-16 19:02:00,
2013-09-16 15:07:00,65.1,52.2,30.04,West,276,2.0,3.0,63,0.00,,,0.00,WeatherCatV1.15B25,2013-09-16 19:07:00,
2013-09-16 15:12:00,65.2,52.3,30.03,WNW,300,2.0,4.0,63,0.00,,,0.00,WeatherCatV1.15B25,2013-09-16 19:12:00,
2013-09-16 15:17:00,65.3,51.9,30.04,NW,309,5.0,6.0,62,0.00,,,0.00,WeatherCatV1.15B25,2013-09-16 19:17:00,
2013-09-16 15:22:00,65.6,52.2,30.04,ESE,104,1.0,2.0,62,0.00,,,0.00,WeatherCatV1.15B25,2013-09-16 19:22:00,
2013-09-16 15:27:00,65.4,51.6,30.04,NW,307,4.0,5.0,61,0.00,,,0.00,WeatherCatV1.15B25,2013-09-16 19:27:00,
2013-09-16 15:32:00,65.7,52.8,30.04,West,271,6.0,6.0,63,0.00,,,0.00,WeatherCatV1.15B25,2013-09-16 19:32:00,
2013-09-16 15:37:00,66.0,52.6,30.04,ENE,75,2.0,8.0,62,0.00,,,0.00,WeatherCatV1.15B25,2013-09-16 19:37:00,
2013-09-16 15:42:00,65.8,53.3,30.04,North,4,1.0,2.0,64,0.00,,,0.00,WeatherCatV1.15B25,2013-09-16 19:42:00,
2013-09-16 15:47:00,65.5,53.0,30.04,NNW,330,2.0,4.0,64,0.00,,,0.00,WeatherCatV1.15B25,2013-09-16 19:47:00,
2013-09-16 15:52:00,65.3,52.8,30.04,NNW,345,2.0,3.0,64,0.00,,,0.00,WeatherCatV1.15B25,2013-09-16 19:52:00,
2013-09-16 15:57:00,65.0,52.9,30.04,East,90,2.0,5.0,65,0.00,,,0.00,WeatherCatV1.15B25,2013-09-16 19:57:00,
2013-09-16 16:02:00,64.7,53.5,30.05,NNW,327,4.0,4.0,67,0.00,,,0.00,WeatherCatV1.15B25,2013-09-16 20:02:00,
2013-09-16 16:07:00,64.0,52.4,30.05,SW,225,0.0,2.0,66,0.00,,,0.00,WeatherCatV1.15B25,2013-09-16 20:07:00,
2013-09-16 16:12:00,63.6,52.4,30.05,NW,321,2.0,6.0,67,0.00,,,0.00,WeatherCatV1.15B25,2013-09-16 20:12:00,
2013-09-16 16:17:00,63.6,52.4,30.05,West,268,2.0,5.0,67,0.00,,,0.00,WeatherCatV1.15B25,2013-09-16 20:17:00,
2013-09-16 16:22:00,64.1,52.9,30.05,NNW,332,2.0,5.0,67,0.00,,,0.00,WeatherCatV1.15B25,2013-09-16 20:22:00,
2013-09-16 16:27:00,64.1,52.1,30.05,WSW,248,2.0,7.0,65,0.00,,,0.00,WeatherCatV1.15B25,2013-09-16 20:27:00,
2013-09-16 16:32:00,64.2,52.6,30.05,West,271,1.0,4.0,66,0.00,,,0.00,WeatherCatV1.15B25,2013-09-16 20:32:00,
2013-09-16 16:37:00,64.3,52.3,30.05,NNW,333,4.0,5.0,65,0.00,,,0.00,WeatherCatV1.15B25,2013-09-16 20:37:00,
2013-09-16 16:42:00,64.2,51.8,30.05,West,281,3.0,4.0,64,0.00,,,0.00,WeatherCatV1.15B25,2013-09-16 20:42:00,
2013-09-16 16:47:00,64.3,51.9,30.05,NNW,330,2.0,2.0,64,0.00,,,0.00,WeatherCatV1.15B25,2013-09-16 20:47:00,
2013-09-16 16:52:00,64.2,52.6,30.05,SW,218,2.0,3.0,66,0.00,,,0.00,WeatherCatV1.15B25,2013-09-16 20:52:00,
2013-09-16 16:57:00,64.3,52.3,30.05,NNW,328,1.0,5.0,65,0.00,,,0.00,WeatherCatV1.15B25,2013-09-16 20:57:00,
2013-09-16 17:02:00,64.3,52.7,30.05,NW,326,1.0,4.0,66,0.00,,,0.00,WeatherCatV1.15B25,2013-09-16 21:02:00,
2013-09-16 17:07:00,64.3,52.3,30.05,NNW,333,0.0,3.0,65,0.00,,,0.00,WeatherCatV1.15B25,2013-09-16 21:07:00,
2013-09-16 17:12:00,64.3,52.7,30.06,NW,316,2.0,4.0,66,0.00,,,0.00,WeatherCatV1.15B25,2013-09-16 21:12:00,
2013-09-16 17:17:00,64.1,51.7,30.06,NW,321,4.0,4.0,64,0.00,,,0.00,WeatherCatV1.15B25,2013-09-16 21:17:00,
2013-09-16 17:22:00,63.7,50.9,30.06,WNW,295,3.0,11.0,63,0.00,,,0.00,WeatherCatV1.15B25,2013-09-16 21:22:00,
2013-09-16 17:27:00,63.7,50.9,30.06,West,280,5.0,6.0,63,0.00,,,0.00,WeatherCatV1.15B25,2013-09-16 21:27:00,
2013-09-16 17:32:00,63.7,51.3,30.06,WNW,295,3.0,5.0,64,0.00,,,0.00,WeatherCatV1.15B25,2013-09-16 21:32:00,
2013-09-16 17:37:00,63.8,50.5,30.07,North,1,2.0,7.0,62,0.00,,,0.00,WeatherCatV1.15B25,2013-09-16 21:37:00,
2013-09-16 17:42:00,63.5,50.2,30.07,NW,314,4.0,5.0,62,0.00,,,0.00,WeatherCatV1.15B25,2013-09-16 21:42:00,
2013-09-16 17:47:00,63.0,50.2,30.07,NNW,328,1.0,4.0,63,0.00,,,0.00,WeatherCatV1.15B25,2013-09-16 21:47:00,
2013-09-16 17:52:00,62.6,49.4,30.08,WNW,300,3.0,8.0,62,0.00,,,0.00,WeatherCatV1.15B25,2013-09-16 21:52:00,
2013-09-16 17:57:00,62.2,47.7,30.08,NNW,330,3.0,6.0,59,0.00,,,0.00,WeatherCatV1.15B25,2013-09-16 21:57:00,
2013-09-16 18:02:00,62.0,46.6,30.08,NNW,342,3.0,7.0,57,0.00,,,0.00,WeatherCatV1.15B25,2013-09-16 22:02:00,
2013-09-16 18:07:00,61.7,46.3,30.08,WNW,300,1.0,6.0,57,0.00,,,0.00,WeatherCatV1.15B25,2013-09-16 22:07:00,
2013-09-16 18:12:00,61.4,46.9,30.09,SE,131,2.0,4.0,59,0.00,,,0.00,WeatherCatV1.15B25,2013-09-16 22:12:00,
2013-09-16 18:17:00,61.0,47.5,30.09,NE,44,1.0,5.0,61,0.00,,,0.00,WeatherCatV1.15B25,2013-09-16 22:17:00,
2013-09-16 18:22:00,60.7,47.2,30.09,West,267,1.0,5.0,61,0.00,,,0.00,WeatherCatV1.15B25,2013-09-16 22:22:00,
2013-09-16 18:27:00,60.3,46.8,30.09,NNW,333,1.0,2.0,61,0.00,,,0.00,WeatherCatV1.15B25,2013-09-16 22:27:00,
2013-09-16 18:32:00,60.0,46.9,30.10,NW,326,4.0,5.0,62,0.00,,,0.00,WeatherCatV1.15B25,2013-09-16 22:32:00,
2013-09-16 18:37:00,59.7,47.1,30.10,North,350,0.0,5.0,63,0.00,,,0.00,WeatherCatV1.15B25,2013-09-16 22:37:00,
2013-09-16 18:42:00,59.5,46.9,30.10,NW,305,1.0,4.0,63,0.00,,,0.00,WeatherCatV1.15B25,2013-09-16 22:42:00,
2013-09-16 18:47:00,59.2,46.6,30.10,North,349,3.0,4.0,63,0.00,,,0.00,WeatherCatV1.15B25,2013-09-16 22:47:00,
2013-09-16 18:52:00,58.8,46.2,30.10,WNW,288,4.0,7.0,63,0.00,,,0.00,WeatherCatV1.15B25,2013-09-16 22:52:00,
2013-09-16 18:57:00,58.6,45.6,30.11,West,281,2.0,5.0,62,0.00,,,0.00,WeatherCatV1.15B25,2013-09-16 22:57:00,
2013-09-16 19:02:00,58.3,45.3,30.11,NW,325,1.0,12.0,62,0.00,,,0.00,WeatherCatV1.15B25,2013-09-16 23:02:00,
2013-09-16 19:07:00,58.0,45.1,30.12,NNW,338,2.0,5.0,62,0.00,,,0.00,WeatherCatV1.15B25,2013-09-16 23:07:00,
2013-09-16 19:12:00,57.8,44.4,30.12,WNW,296,2.0,5.0,61,0.00,,,0.00,WeatherCatV1.15B25,2013-09-16 23:12:00,
2013-09-16 19:17:00,57.5,44.2,30.12,North,356,1.0,5.0,61,0.00,,,0.00,WeatherCatV1.15B25,2013-09-16 23:17:00,
2013-09-16 19:22:00,57.2,44.7,30.13,NW,316,3.0,3.0,63,0.00,,,0.00,WeatherCatV1.15B25,2013-09-16 23:22:00,
2013-09-16 19:27:00,57.0,44.1,30.13,NNW,327,1.0,2.0,62,0.00,,,0.00,WeatherCatV1.15B25,2013-09-16 23:27:00,
2013-09-16 19:32:00,56.7,43.8,30.14,NW,313,1.0,4.0,62,0.00,,,0.00,WeatherCatV1.15B25,2013-09-16 23:32:00,
2013-09-16 19:37:00,56.4,43.1,30.14,WNW,299,1.0,5.0,61,0.00,,,0.00,WeatherCatV1.15B25,2013-09-16 23:37:00,
2013-09-16 19:42:00,56.1,42.8,30.14,SE,131,0.0,4.0,61,0.00,,,0.00,WeatherCatV1.15B25,2013-09-16 23:42:00,
2013-09-16 19:47:00,55.8,42.1,30.14,North,356,0.0,5.0,60,0.00,,,0.00,WeatherCatV1.15B25,2013-09-16 23:47:00,
2013-09-16 19:52:00,55.5,41.8,30.15,West,273,2.0,4.0,60,0.00,,,0.00,WeatherCatV1.15B25,2013-09-16 23:52:00,
2013-09-16 19:57:00,55.3,42.1,30.15,NNE,16,2.0,4.0,61,0.00,,,0.00,WeatherCatV1.15B25,2013-09-16 23:57:00,
2013-09-16 20:02:00,55.0,41.8,30.16,NNE,13,2.0,5.0,61,0.00,,,0.00,WeatherCatV1.15B25,2013-09-17 00:02:00,
2013-09-16 20:07:00,54.9,41.7,30.16,North,11,0.0,7.0,61,0.00,,,0.00,WeatherCatV1.15B25,2013-09-17 00:07:00,
2013-09-16 20:12:00,54.7,41.5,30.16,NNW,342,1.0,5.0,61,0.00,,,0.00,WeatherCatV1.15B25,2013-09-17 00:12:00,
2013-09-16 20:17:00,54.5,41.3,30.17,WNW,297,0.0,2.0,61,0.00,,,0.00,WeatherCatV1.15B25,2013-09-17 00:17:00,
2013-09-16 20:22:00,54.3,41.1,30.17,WNW,291,3.0,4.0,61,0.00,,,0.00,WeatherCatV1.15B25,2013-09-17 00:22:00,
2013-09-16 20:27:00,54.1,41.4,30.17,West,261,4.0,4.0,62,0.00,,,0.00,WeatherCatV1.15B25,2013-09-17 00:27:00,
2013-09-16 20:32:00,54.0,41.3,30.17,NW,319,1.0,1.0,62,0.00,,,0.00,WeatherCatV1.15B25,2013-09-17 00:32:00,
2013-09-16 20:37:00,53.7,41.4,30.17,NE,52,1.0,2.0,63,0.00,,,0.00,WeatherCatV1.15B25,2013-09-17 00:37:00,
2013-09-16 20:42:00,53.5,41.6,30.18,NW,314,0.0,2.0,64,0.00,,,0.00,WeatherCatV1.15B25,2013-09-17 00:42:00,
2013-09-16 20:47:00,53.3,41.8,30.18,NNE,26,0.0,4.0,65,0.00,,,0.00,WeatherCatV1.15B25,2013-09-17 00:47:00,
2013-09-16 20:52:00,53.1,41.6,30.18,West,262,1.0,3.0,65,0.00,,,0.00,WeatherCatV1.15B25,2013-09-17 00:52:00,
2013-09-16 20:57:00,52.9,41.1,30.18,North,0,2.0,3.0,64,0.00,,,0.00,WeatherCatV1.15B25,2013-09-17 00:57:00,
2013-09-16 21:02:00,52.8,41.4,30.18,West,281,4.0,4.0,65,0.00,,,0.00,WeatherCatV1.15B25,2013-09-17 01:02:00,
2013-09-16 21:07:00,52.7,41.3,30.19,NW,309,1.0,1.0,65,0.00,,,0.00,WeatherCatV1.15B25,2013-09-17 01:07:00,
2013-09-16 21:12:00,52.5,40.7,30.19,NW,316,2.0,5.0,64,0.00,,,0.00,WeatherCatV1.15B25,2013-09-17 01:12:00,
2013-09-16 21:17:00,52.4,40.6,30.19,NNW,347,0.0,3.0,64,0.00,,,0.00,WeatherCatV1.15B25,2013-09-17 01:17:00,
2013-09-16 21:22:00,52.3,40.1,30.20,NE,53,2.0,4.0,63,0.00,,,0.00,WeatherCatV1.15B25,2013-09-17 01:22:00,
2013-09-16 21:27:00,52.2,40.0,30.20,NNW,333,0.0,3.0,63,0.00,,,0.00,WeatherCatV1.15B25,2013-09-17 01:27:00,
2013-09-16 21:32:00,52.0,39.8,30.20,West,271,0.0,5.0,63,0.00,,,0.00,WeatherCatV1.15B25,2013-09-17 01:32:00,
2013-09-16 21:37:00,51.9,39.7,30.21,NNW,335,0.0,5.0,63,0.00,,,0.00,WeatherCatV1.15B25,2013-09-17 01:37:00,
2013-09-16 21:42:00,51.7,39.9,30.21,North,355,3.0,3.0,64,0.00,,,0.00,WeatherCatV1.15B25,2013-09-17 01:42:00,
2013-09-16 21:47:00,51.6,39.8,30.21,NNW,346,0.0,2.0,64,0.00,,,0.00,WeatherCatV1.15B25,2013-09-17 01:47:00,
2013-09-16 21:52:00,51.4,40.0,30.21,NW,321,0.0,3.0,65,0.00,,,0.00,WeatherCatV1.15B25,2013-09-17 01:52:00,
2013-09-16 21:57:00,51.2,39.8,30.22,NW,319,2.0,3.0,65,0.00,,,0.00,WeatherCatV1.15B25,2013-09-17 01:57:00,
2013-09-16 22:02:00,51.0,39.7,30.22,WNW,298,1.0,3.0,65,0.00,,,0.00,WeatherCatV1.15B25,2013-09-17 02:02:00,
2013-09-16 22:07:00,50.8,39.5,30.22,WNW,296,1.0,2.0,65,0.00,,,0.00,WeatherCatV1.15B25,2013-09-17 02:07:00,
2013-09-16 22:12:00,50.6,39.3,30.23,North,3,2.0,5.0,65,0.00,,,0.00,WeatherCatV1.15B25,2013-09-17 02:12:00,
2013-09-16 22:17:00,50.4,39.5,30.23,NW,311,0.0,3.0,66,0.00,,,0.00,WeatherCatV1.15B25,2013-09-17 02:17:00,
2013-09-16 22:22:00,50.3,39.4,30.23,North,1,0.0,2.0,66,0.00,,,0.00,WeatherCatV1.15B25,2013-09-17 02:22:00,
2013-09-16 22:27:00,50.1,39.2,30.23,NW,317,2.0,3.0,66,0.00,,,0.00,WeatherCatV1.15B25,2013-09-17 02:27:00,
2013-09-16 22:32:00,50.0,39.1,30.24,NNE,23,0.0,3.0,66,0.00,,,0.00,WeatherCatV1.15B25,2013-09-17 02:32:00,
2013-09-16 22:37:00,49.8,38.9,30.24,North,350,1.0,2.0,66,0.00,,,0.00,WeatherCatV1.15B25,2013-09-17 02:37:00,
2013-09-16 22:42:00,49.7,38.8,30.24,West,273,1.0,2.0,66,0.00,,,0.00,WeatherCatV1.15B25,2013-09-17 02:42:00,
2013-09-16 22:47:00,49.5,38.6,30.24,West,264,2.0,3.0,66,0.00,,,0.00,WeatherCatV1.15B25,2013-09-17 02:47:00,
2013-09-16 22:52:00,49.3,38.8,30.24,NNW,345,0.0,1.0,67,0.00,,,0.00,WeatherCatV1.15B25,2013-09-17 02:52:00,
2013-09-16 22:57:00,49.1,38.6,30.25,NNW,331,3.0,5.0,67,0.00,,,0.00,WeatherCatV1.15B25,2013-09-17 02:57:00,
2013-09-16 23:02:00,49.0,38.5,30.25,West,281,1.0,2.0,67,0.00,,,0.00,WeatherCatV1.15B25,2013-09-17 03:02:00,
2013-09-16 23:07:00,48.8,38.7,30.25,NW,317,0.0,1.0,68,0.00,,,0.00,WeatherCatV1.15B25,2013-09-17 03:07:00,
2013-09-16 23:12:00,48.7,38.6,30.25,West,278,0.0,1.0,68,0.00,,,0.00,WeatherCatV1.15B25,2013-09-17 03:12:00,
2013-09-16 23:17:00,48.6,38.5,30.25,North,0,0.0,2.0,68,0.00,,,0.00,WeatherCatV1.15B25,2013-09-17 03:17:00,
2013-09-16 23:22:00,48.5,38.4,30.26,NNW,338,0.0,1.0,68,0.00,,,0.00,WeatherCatV1.15B25,2013-09-17 03:22:00,
2013-09-16 23:27:00,48.3,38.2,30.26,NNW,331,1.0,1.0,68,0.00,,,0.00,WeatherCatV1.15B25,2013-09-17 03:27:00,
2013-09-16 23:32:00,48.1,38.0,30.26,NW,323,0.0,1.0,68,0.00,,,0.00,WeatherCatV1.15B25,2013-09-17 03:32:00,
2013-09-16 23:37:00,47.9,38.2,30.26,WSW,251,0.0,1.0,69,0.00,,,0.00,WeatherCatV1.15B25,2013-09-17 03:37:00,
2013-09-16 23:42:00,47.8,38.1,30.26,SW,229,0.0,0.0,69,0.00,,,0.00,WeatherCatV1.15B25,2013-09-17 03:42:00,
2013-09-16 23:47:00,47.7,38.0,30.27,NE,42,0.0,1.0,69,0.00,,,0.00,WeatherCatV1.15B25,2013-09-17 03:47:00,
2013-09-16 23:52:00,47.6,37.9,30.27,North,357,0.0,1.0,69,0.00,,,0.00,WeatherCatV1.15B25,2013-09-17 03:52:00,
2013-09-16 23:57:00,47.4,38.1,30.27,WNW,291,2.0,2.0,70,0.00,,,0.00,WeatherCatV1.15B25,2013-09-17 03:57:00,